[[{"header":{"parameterUnit":"m.s-1","parameterCategory":1,"la1":30.2991,"la2":30.254,"lo1":-89.0895,"lo2":-89.0444,"dy":0.0017,"dx":0.0017,"nx":28,"ny":28,"refTime":"2023-11-05T03:00:00:Z","depth":0,"parameterNumber":2,"parameterNumberName":"U-component_of_WINDS"},"data":[0,0,0,0,0,0,0,0,0,0,0,0,0,0,0,0,0,0,0,0,0,0,0,0,0,0,0,0,0,0,0,0,0,0,0,0,0,0,0,0,0,0,0,0,0,0,0,0,0,0,0,0,0,0,0,0,0,0,-0.3722,-0.3722,0,-0.3718,-0.3718,-0.3718,-0.3675,-0.3674,-0.3673,-0.3672,-0.367,-0.367,-0.3671,0,0,0,0,0,0,0,0,0,0,0,0,0,-0.3695,-0.3696,-0.3722,-0.3722,-0.3722,-0.3718,-0.3718,-0.3718,-0.3676,-0.3674,-0.3673,-0.3672,-0.3669,-0.367,-0.3671,0,0,0,0,0,0,0,0,0,0,0,0,0,-0.3701,-0.3696,-0.3722,-0.3701,-0.3699,-0.3718,-0.3718,-0.3718,-0.3676,-0.3674,-0.3673,-0.3671,-0.3669,-0.367,-0.3672,-0.3712,0,0,-0.3676,-0.3676,0,0,0,0,0,0,0,0,-0.3701,-0.3702,-0.3704,-0.3702,-0.37,-0.3696,-0.3707,-0.3716,-0.3676,-0.3685,-0.3672,-0.367,-0.368,-0.368,-0.3683,-0.3712,-0.3712,-0.3676,-0.3677,-0.3677,-0.3678,0,0,0,0,0,0,0,-0.37,-0.3702,-0.3721,-0.3704,-0.3702,-0.3691,-0.369,-0.3709,-0.3691,-0.3684,-0.3681,-0.3681,-0.3678,-0.3682,-0.3682,-0.3712,-0.3676,-0.3677,-0.3678,-0.3679,-0.3774,-0.3776,0,0,0,0,0,0,-0.3703,-0.3702,-0.3721,-0.3721,-0.3696,-0.3693,-0.3692,-0.3699,-0.3691,-0.3688,-0.3682,-0.3679,-0.368,-0.3681,-0.3682,-0.3729,-0.3677,-0.3679,-0.3679,-0.3772,-0.3774,-0.3776,0,0,0,0,0,0,-0.3702,-0.3705,-0.3721,-0.371,-0.3712,-0.3695,-0.3703,-0.3699,-0.3703,-0.3689,-0.3686,-0.3688,-0.3679,-0.368,-0.3705,-0.3729,-0.3679,-0.3681,-0.377,-0.3773,-0.3775,-0.3824,0,0,0,0,0,0,-0.3702,-0.3705,-0.372,-0.3711,-0.3712,-0.3744,-0.3704,-0.37,-0.3705,-0.37,-0.3695,-0.3692,-0.3678,-0.3703,-0.3706,-0.373,-0.3682,-0.3768,-0.3772,-0.3775,-0.382,-0.3828,-0.3834,0,0,0,0,0,-0.3701,-0.3734,-0.3721,-0.3724,-0.3731,-0.3745,-0.3746,-0.3728,-0.3707,-0.3722,-0.3714,-0.3692,-0.3725,-0.3706,-0.3709,-0.3733,-0.3767,-0.3771,-0.3774,-0.3817,-0.3826,-0.3834,0,0,0,0,0,0,-0.3747,-0.3733,-0.3718,-0.3749,-0.3749,-0.3738,-0.3757,-0.3738,-0.3744,-0.374,-0.3718,-0.3717,-0.3745,-0.3741,-0.372,-0.3772,-0.3742,-0.3747,-0.3774,-0.3782,-0.3789,-0.379,-0.3683,0,0,0,0,0,-0.3761,-0.3774,-0.376,-0.3789,-0.379,-0.3773,-0.3779,-0.3765,-0.3764,-0.3763,-0.3757,-0.3757,-0.3767,-0.3774,-0.3783,-0.3819,-0.3817,-0.3837,-0.3844,-0.385,-0.3855,-0.3874,-0.3883,-0.3789,-0.3789,-0.3789,0,0,-0.379,-0.3784,-0.3793,-0.3798,-0.3796,-0.381,-0.3773,-0.379,-0.38,-0.3766,-0.3789,-0.3784,-0.3782,-0.3813,-0.3826,-0.3811,-0.388,-0.3855,-0.386,-0.3861,-0.3879,-0.3888,-0.3895,-0.3791,-0.3791,-0.3791,0,0,-0.385,-0.3846,-0.387,-0.3868,-0.3865,-0.3854,-0.386,-0.3851,-0.3847,-0.3869,-0.3844,-0.3855,-0.3874,-0.3874,-0.3876,-0.3935,-0.3916,-0.3938,-0.3976,-0.3995,-0.4002,-0.4009,-0.403,-0.4038,-0.3943,-0.3943,-0.3943,0,-0.3887,-0.3906,-0.3885,-0.3902,-0.3906,-0.3874,-0.3898,-0.3898,-0.3898,-0.3902,-0.3884,-0.3906,-0.3903,-0.3933,-0.3947,-0.395,-0.3956,-0.3939,-0.4003,-0.4009,-0.4015,-0.4035,-0.4043,-0.3946,-0.3945,-0.3945,-0.3945,0,-0.3951,-0.3965,-0.3985,-0.3985,-0.399,-0.4011,-0.3993,-0.4001,-0.3986,-0.3977,-0.4,-0.3995,-0.4002,-0.4008,-0.3994,-0.4036,-0.4027,-0.4006,-0.3976,-0.4027,-0.4045,-0.4053,-0.395,-0.3949,-0.3948,-0.3947,0,0,-0.4042,-0.4029,-0.4037,-0.4036,-0.403,-0.4041,-0.406,-0.4066,-0.4074,-0.4074,-0.4091,-0.4106,-0.4087,-0.409,-0.4075,-0.4092,-0.4139,-0.4069,-0.4069,-0.4083,-0.4186,-0.4202,-0.4211,-0.4126,-0.4127,-0.4128,-0.4186,0,-0.41,-0.4132,-0.4113,-0.4148,-0.416,-0.413,-0.4147,-0.4146,-0.4137,-0.4147,-0.4138,-0.4149,-0.4123,-0.4124,-0.4139,-0.413,-0.4159,-0.4125,-0.4141,-0.4142,-0.4144,-0.4221,-0.4238,-0.4293,-0.4193,-0.4194,-0.4195,0,-0.4172,-0.4176,-0.4212,-0.4203,-0.4207,-0.4223,-0.4227,-0.4236,-0.4234,-0.4226,-0.4229,-0.421,-0.4229,-0.4198,-0.4224,-0.4201,-0.4206,-0.4203,-0.4205,-0.4206,-0.4173,-0.4225,-0.431,-0.4318,-0.4206,-0.4205,-0.4205,0,-0.4236,-0.4249,-0.4272,-0.4273,-0.4263,-0.4274,-0.4271,-0.4266,-0.4271,-0.4275,-0.4277,-0.4283,-0.4287,-0.4292,-0.4276,-0.4255,-0.4304,-0.4271,-0.4299,-0.4299,-0.4311,-0.4311,-0.4399,-0.4313,-0.4313,-0.4313,-0.4313,0,-0.4303,-0.4327,-0.43,-0.4315,-0.434,-0.4318,-0.4344,-0.4337,-0.4333,-0.4346,-0.4321,-0.4333,-0.431,-0.4321,-0.4308,-0.4332,-0.4333,-0.4328,-0.4325,-0.4331,-0.4332,-0.4335,-0.4331,-0.4315,-0.4315,-0.4314,-0.4314,0,-0.4379,-0.4362,-0.4385,-0.4373,-0.4371,-0.439,-0.438,-0.4393,-0.4382,-0.4399,-0.4402,-0.4385,-0.4396,-0.438,-0.4389,-0.4381,-0.4413,-0.4404,-0.4414,-0.4412,-0.444,-0.4438,-0.4534,-0.4545,-0.4452,-0.4453,-0.4453,0,-0.4423,-0.444,-0.443,-0.4436,-0.4434,-0.4445,-0.4449,-0.4428,-0.4433,-0.4431,-0.4445,-0.4453,-0.4459,-0.4478,-0.4468,-0.4475,-0.4466,-0.4498,-0.4467,-0.4472,-0.4467,-0.4466,-0.4468,-0.4506,-0.4507,-0.4508,-0.4508,0,-0.4504,-0.4495,-0.4502,-0.4506,-0.4512,-0.4514,-0.4515,-0.4522,-0.4499,-0.4507,-0.4517,-0.4522,-0.4531,-0.454,-0.4544,-0.4541,-0.4522,-0.4518,-0.4525,-0.4532,-0.4538,-0.4536,-0.4433,-0.4516,-0.4516,-0.4515,-0.4515,-0.4514,-0.4566,-0.458,-0.4575,-0.4583,-0.4581,-0.4582,-0.4594,-0.4584,-0.4592,-0.4598,-0.4584,-0.4598,-0.4595,-0.4598,-0.4597,-0.4608,-0.4593,-0.4603,-0.4606,-0.4609,-0.4613,-0.4535,-0.4608,-0.4608,-0.4608,-0.4607,-0.4607,0,-0.4647,-0.4641,-0.465,-0.4651,-0.4658,-0.4637,-0.4636,-0.4644,-0.4656,-0.4654,-0.466,-0.4672,-0.4681,-0.467,-0.4677,-0.4687,-0.4679,-0.469,-0.469,-0.4689,-0.4625,-0.4619,-0.4697,-0.4697,-0.4697,-0.4697,-0.4697,-0.4697,-0.469,-0.4712,-0.4702,-0.4723,-0.4717,-0.473,-0.4732,-0.4732,-0.4731,-0.4745,-0.4752,-0.4744,-0.4739,-0.4745,-0.4752,-0.4749,-0.4753,-0.4768,-0.4761,-0.4702,-0.4694,-0.4685,-0.4679,-0.4769,-0.4769,-0.4824,-0.4825,-0.4825]},{"header":{"parameterUnit":"m.s-1","parameterCategory":1,"la1":30.2991,"la2":30.254,"lo1":-89.0895,"lo2":-89.0444,"dy":0.0017,"dx":0.0017,"nx":28,"ny":28,"refTime":"2023-11-05T03:00:00:Z","depth":0,"parameterNumber":3,"parameterNumberName":"V-component_of_WINDS"},"data":[0,0,0,0,0,0,0,0,0,0,0,0,0,0,0,0,0,0,0,0,0,0,0,0,0,0,0,0,0,0,0,0,0,0,0,0,0,0,0,0,0,0,0,0,0,0,0,0,0,0,0,0,0,0,0,0,0,0,-0.7188,-0.7189,0,-0.728,-0.7281,-0.7282,-0.729,-0.7289,-0.7288,-0.7287,-0.7382,-0.7386,-0.7389,0,0,0,0,0,0,0,0,0,0,0,0,0,-0.7023,-0.7026,-0.7188,-0.7189,-0.7191,-0.728,-0.7281,-0.7282,-0.729,-0.7289,-0.7288,-0.7287,-0.7381,-0.7385,-0.7389,0,0,0,0,0,0,0,0,0,0,0,0,0,-0.7103,-0.7027,-0.7188,-0.7205,-0.7208,-0.7279,-0.7281,-0.7282,-0.7291,-0.7289,-0.7288,-0.7286,-0.738,-0.7385,-0.739,-0.745,0,0,-0.7405,-0.7408,0,0,0,0,0,0,0,0,-0.7098,-0.7109,-0.7202,-0.7204,-0.7207,-0.7272,-0.7257,-0.7339,-0.7291,-0.7259,-0.7287,-0.7286,-0.7347,-0.7355,-0.7375,-0.7455,-0.7459,-0.7406,-0.7409,-0.7411,-0.7413,0,0,0,0,0,0,0,-0.7093,-0.7105,-0.7224,-0.7203,-0.7206,-0.7209,-0.7219,-0.7273,-0.731,-0.7262,-0.7263,-0.7273,-0.7348,-0.737,-0.7377,-0.746,-0.7406,-0.741,-0.7414,-0.7416,-0.7596,-0.7598,0,0,0,0,0,0,-0.7084,-0.71,-0.7222,-0.7227,-0.7148,-0.7213,-0.7224,-0.7253,-0.731,-0.7317,-0.7275,-0.7273,-0.7362,-0.7371,-0.7381,-0.7457,-0.7411,-0.7416,-0.7419,-0.7595,-0.7597,-0.7599,0,0,0,0,0,0,-0.708,-0.7094,-0.7218,-0.7164,-0.718,-0.7218,-0.725,-0.7255,-0.7277,-0.7319,-0.7326,-0.729,-0.7361,-0.7373,-0.7433,-0.746,-0.7418,-0.7423,-0.7593,-0.7595,-0.7598,-0.7608,0,0,0,0,0,0,-0.7075,-0.7093,-0.7116,-0.7164,-0.7183,-0.7269,-0.7251,-0.7258,-0.7286,-0.7285,-0.7335,-0.7342,-0.7361,-0.7426,-0.7438,-0.7466,-0.7427,-0.759,-0.7594,-0.7597,-0.7605,-0.7611,-0.7615,0,0,0,0,0,-0.7069,-0.7115,-0.7117,-0.7132,-0.7212,-0.727,-0.7281,-0.7301,-0.7288,-0.7312,-0.7339,-0.7341,-0.7455,-0.7432,-0.7446,-0.7476,-0.7589,-0.7593,-0.7597,-0.7603,-0.761,-0.7615,0,0,0,0,0,0,-0.7069,-0.7122,-0.7125,-0.7187,-0.7224,-0.7271,-0.7302,-0.7307,-0.7348,-0.7346,-0.737,-0.7381,-0.744,-0.7464,-0.7437,-0.7538,-0.7521,-0.7527,-0.7521,-0.7527,-0.7532,-0.7525,-0.7431,0,0,0,0,0,-0.7076,-0.7118,-0.7162,-0.7214,-0.7232,-0.7264,-0.729,-0.7302,-0.7341,-0.7357,-0.7388,-0.7427,-0.7472,-0.75,-0.7544,-0.7609,-0.762,-0.7636,-0.7641,-0.7645,-0.7651,-0.7688,-0.7696,-0.7611,-0.7611,-0.7611,0,0,-0.7092,-0.7126,-0.7151,-0.7215,-0.7244,-0.7288,-0.7277,-0.7323,-0.7356,-0.7364,-0.7423,-0.7447,-0.7492,-0.7555,-0.7584,-0.7577,-0.7677,-0.765,-0.7652,-0.7657,-0.7693,-0.7701,-0.7708,-0.7614,-0.7613,-0.7613,0,0,-0.7143,-0.7172,-0.7219,-0.7249,-0.7294,-0.7315,-0.7326,-0.7373,-0.739,-0.7449,-0.7456,-0.7496,-0.7572,-0.7604,-0.763,-0.7694,-0.7697,-0.7707,-0.7732,-0.7769,-0.7775,-0.7781,-0.7805,-0.7813,-0.7713,-0.7713,-0.7713,0,-0.7156,-0.7222,-0.7242,-0.7289,-0.7317,-0.7326,-0.7374,-0.7402,-0.746,-0.7479,-0.747,-0.7566,-0.7597,-0.7668,-0.7683,-0.7704,-0.7718,-0.7702,-0.7773,-0.7779,-0.7785,-0.7808,-0.7817,-0.7714,-0.7714,-0.7714,-0.7713,0,-0.7237,-0.7283,-0.7315,-0.737,-0.7402,-0.7449,-0.7477,-0.7507,-0.7516,-0.7539,-0.76,-0.7637,-0.7688,-0.7706,-0.7716,-0.7779,-0.7773,-0.7768,-0.775,-0.7794,-0.7816,-0.7825,-0.7715,-0.7715,-0.7715,-0.7714,0,0,-0.7291,-0.7357,-0.7368,-0.7394,-0.7445,-0.7481,-0.7529,-0.7579,-0.7605,-0.7644,-0.7685,-0.775,-0.7746,-0.7775,-0.7789,-0.7821,-0.787,-0.7812,-0.7813,-0.7822,-0.7944,-0.7948,-0.7958,-0.7873,-0.7874,-0.7876,-0.794,0,-0.7348,-0.7433,-0.7453,-0.7526,-0.7569,-0.7578,-0.762,-0.7657,-0.7679,-0.7719,-0.7744,-0.779,-0.778,-0.7798,-0.783,-0.7858,-0.7895,-0.7853,-0.7913,-0.7915,-0.7902,-0.7969,-0.7974,-0.8033,-0.7949,-0.7951,-0.7952,0,-0.7426,-0.7468,-0.7545,-0.7592,-0.761,-0.7648,-0.7696,-0.7734,-0.7775,-0.779,-0.7823,-0.7834,-0.7885,-0.7864,-0.7936,-0.7907,-0.7932,-0.795,-0.7953,-0.796,-0.7936,-0.7979,-0.8052,-0.8061,-0.7965,-0.7964,-0.7963,0,-0.7459,-0.7534,-0.759,-0.7612,-0.7667,-0.7693,-0.7717,-0.7758,-0.7787,-0.7829,-0.7849,-0.7896,-0.7922,-0.7959,-0.7983,-0.7966,-0.8053,-0.8034,-0.8067,-0.8067,-0.8086,-0.8084,-0.8165,-0.81,-0.81,-0.81,-0.81,0,-0.7522,-0.7569,-0.7606,-0.7641,-0.7694,-0.7717,-0.777,-0.7794,-0.783,-0.787,-0.7881,-0.7919,-0.7947,-0.7989,-0.8008,-0.8065,-0.8077,-0.809,-0.8095,-0.809,-0.8089,-0.8108,-0.8105,-0.8103,-0.8102,-0.8102,-0.8101,0,-0.7568,-0.7594,-0.7656,-0.7703,-0.7716,-0.7754,-0.7795,-0.7829,-0.7852,-0.7903,-0.7916,-0.7952,-0.8002,-0.8029,-0.8092,-0.8104,-0.8169,-0.8171,-0.8155,-0.8157,-0.8189,-0.8186,-0.8285,-0.83,-0.8225,-0.8225,-0.8226,0,-0.7606,-0.7643,-0.7694,-0.7722,-0.7747,-0.7791,-0.7821,-0.7844,-0.7875,-0.7926,-0.7955,-0.8006,-0.8048,-0.8127,-0.8159,-0.8208,-0.8212,-0.8243,-0.8219,-0.8213,-0.8214,-0.8212,-0.8216,-0.8248,-0.8248,-0.8249,-0.8249,0,-0.7673,-0.7684,-0.7726,-0.7774,-0.7809,-0.7848,-0.7886,-0.7908,-0.7938,-0.7972,-0.8024,-0.8056,-0.812,-0.8171,-0.8222,-0.8248,-0.8255,-0.8257,-0.8267,-0.8263,-0.8253,-0.826,-0.8167,-0.8254,-0.8254,-0.8254,-0.8253,-0.8253,-0.7717,-0.775,-0.7792,-0.7839,-0.787,-0.7906,-0.7941,-0.7968,-0.8011,-0.8065,-0.8077,-0.8131,-0.8173,-0.8242,-0.827,-0.8313,-0.8307,-0.8322,-0.8326,-0.8329,-0.8331,-0.8245,-0.8322,-0.8322,-0.8322,-0.8322,-0.8322,0,-0.7785,-0.7812,-0.7855,-0.7908,-0.7946,-0.7948,-0.799,-0.8022,-0.8069,-0.8108,-0.8149,-0.8208,-0.8258,-0.8294,-0.8344,-0.8372,-0.8377,-0.8385,-0.8384,-0.839,-0.8333,-0.832,-0.8381,-0.8381,-0.8381,-0.8381,-0.8381,-0.8381,-0.7825,-0.7882,-0.7898,-0.7971,-0.7998,-0.8052,-0.8076,-0.8109,-0.814,-0.8206,-0.8247,-0.827,-0.8308,-0.8362,-0.8407,-0.8417,-0.8435,-0.8444,-0.8454,-0.84,-0.8394,-0.8388,-0.8375,-0.8447,-0.8447,-0.8507,-0.8508,-0.8508]}]]